N86TN KARR-TXKF

Flight info

Callsign N86TN
Flight time 2h 53m
Altitude 31000
Route ELANR9 EMEGE DCT MOL/N0466F330 DCT HPW/M080F330 DCT ATUGI DCT DASER MOMOM1
Aircraft FA50/M-SBDE3FGHIM1RWXY/HB1

Departure

Time 2026-04-23 22:09
Airport Aurora Municipal Airport (KARR)

Arrival

Time 2026-04-24 01:03
Airport L.F. Wade International Airport (TXKF)
Time Latitude Longitude Altitude Speed Heading
2026-04-23 21:53 41.76799 -88.46915 704 ft 0 kts 180°
2026-04-23 22:05 41.76798 -88.46915 704 ft 1 kts 180°
2026-04-23 22:05 41.76778 -88.46914 701 ft 3 kts 179°
2026-04-23 22:05 41.76742 -88.46933 703 ft 9 kts 244°
2026-04-23 22:06 41.76781 -88.46977 700 ft 11 kts 349°
2026-04-23 22:06 41.76872 -88.46973 700 ft 16 kts 15°
2026-04-23 22:06 41.76926 -88.46840 705 ft 19 kts 89°
2026-04-23 22:06 41.76927 -88.46654 706 ft 21 kts 89°
2026-04-23 22:07 41.76928 -88.46449 707 ft 23 kts 88°
2026-04-23 22:07 41.76932 -88.46241 710 ft 19 kts 90°
2026-04-23 22:07 41.76972 -88.46164 711 ft 12 kts
2026-04-23 22:07 41.77040 -88.46170 710 ft 6 kts 309°
2026-04-23 22:08 41.77043 -88.46192 711 ft 0 kts 266°
2026-04-23 22:08 41.77040 -88.46377 707 ft 47 kts 269°
2026-04-23 22:08 41.77033 -88.47046 705 ft 95 kts 269°
2026-04-23 22:08 41.77018 -88.48108 709 ft 130 kts 271°
2026-04-23 22:09 41.77032 -88.49321 994 ft 128 kts 254°
2026-04-23 22:09 41.76634 -88.50325 1246 ft 129 kts 209°
2026-04-23 22:09 41.75709 -88.50252 1500 ft 161 kts 150°
2026-04-23 22:09 41.75012 -88.48853 1675 ft 206 kts 120°
2026-04-23 22:10 41.74410 -88.47018 2127 ft 227 kts 119°
2026-04-23 22:10 41.73737 -88.45056 2906 ft 231 kts 120°
2026-04-23 22:10 41.73062 -88.43140 3870 ft 228 kts 121°
2026-04-23 22:10 41.72381 -88.41203 4645 ft 232 kts 121°
2026-04-23 22:11 41.71696 -88.39237 5434 ft 235 kts 121°
2026-04-23 22:11 41.70969 -88.37170 5669 ft 265 kts 121°
2026-04-23 22:11 41.70139 -88.34844 6281 ft 276 kts 120°
2026-04-23 22:11 41.69320 -88.32536 7165 ft 277 kts 121°
2026-04-23 22:12 41.68477 -88.30179 7737 ft 284 kts 121°
2026-04-23 22:12 41.67615 -88.27786 8370 ft 287 kts 121°
2026-04-23 22:12 41.66738 -88.25366 8999 ft 292 kts 121°
2026-04-23 22:12 41.65844 -88.22909 9619 ft 296 kts 120°
2026-04-23 22:13 41.64942 -88.20422 10183 ft 300 kts 120°
2026-04-23 22:13 41.64052 -88.17879 10764 ft 303 kts 119°
2026-04-23 22:13 41.63213 -88.15459 11332 ft 305 kts 119°
2026-04-23 22:13 41.62308 -88.12884 11920 ft 308 kts 119°
2026-04-23 22:14 41.61388 -88.10286 12501 ft 311 kts 119°
2026-04-23 22:14 41.60460 -88.07652 13015 ft 316 kts 118°
2026-04-23 22:14 41.59500 -88.04928 13243 ft 330 kts 118°
2026-04-23 22:14 41.58522 -88.02151 13798 ft 332 kts 118°
2026-04-23 22:15 41.57536 -87.99359 14298 ft 334 kts 118°
2026-04-23 22:15 41.56537 -87.96537 14768 ft 338 kts 118°
2026-04-23 22:15 41.55531 -87.93697 15309 ft 338 kts 117°
2026-04-23 22:15 41.54520 -87.90844 15739 ft 343 kts 118°
2026-04-23 22:16 41.53495 -87.87954 16228 ft 346 kts 118°
2026-04-23 22:16 41.52463 -87.85049 16727 ft 347 kts 117°
2026-04-23 22:16 41.51424 -87.82128 17228 ft 349 kts 117°
2026-04-23 22:16 41.50372 -87.79173 17569 ft 356 kts 118°
2026-04-23 22:17 41.49303 -87.76173 18028 ft 359 kts 117°
2026-04-23 22:17 41.48246 -87.73206 18499 ft 359 kts 117°
2026-04-23 22:17 41.47162 -87.70171 18781 ft 366 kts 118°
2026-04-23 22:17 41.46062 -87.67095 19197 ft 367 kts 118°
2026-04-23 22:18 41.44963 -87.64025 19670 ft 367 kts 118°
2026-04-23 22:18 41.43612 -87.61163 20063 ft 364 kts 133°
2026-04-23 22:18 41.41789 -87.58852 20410 ft 362 kts 147°
2026-04-23 22:18 41.39618 -87.57207 20758 ft 358 kts 161°
2026-04-23 22:19 41.37240 -87.56274 21117 ft 356 kts 172°
2026-04-23 22:19 41.34800 -87.55753 21479 ft 356 kts 177°
2026-04-23 22:19 41.32332 -87.55443 21863 ft 357 kts 178°
2026-04-23 22:19 41.29857 -87.55073 22225 ft 359 kts 176°
2026-04-23 22:20 41.27376 -87.54591 22597 ft 361 kts 175°
2026-04-23 22:20 41.24884 -87.54126 22953 ft 362 kts 176°
2026-04-23 22:20 41.22376 -87.53712 23306 ft 364 kts 176°
2026-04-23 22:20 41.19856 -87.53279 23622 ft 366 kts 175°
2026-04-23 22:21 41.17341 -87.52670 23889 ft 370 kts 171°
2026-04-23 22:21 41.14829 -87.51897 24151 ft 372 kts 171°
2026-04-23 22:21 41.12290 -87.51169 24415 ft 373 kts 173°
2026-04-23 22:21 41.09738 -87.50528 24677 ft 374 kts 173°
2026-04-23 22:22 41.07177 -87.49868 24979 ft 375 kts 172°
2026-04-23 22:22 41.04611 -87.49162 25240 ft 377 kts 172°
2026-04-23 22:22 41.02036 -87.48458 25498 ft 379 kts 173°
2026-04-23 22:22 40.99477 -87.47781 25763 ft 381 kts 173°
2026-04-23 22:23 40.96872 -87.47092 26026 ft 382 kts 173°
2026-04-23 22:23 40.94260 -87.46391 26269 ft 384 kts 173°
2026-04-23 22:23 40.91631 -87.45686 26512 ft 386 kts 173°
2026-04-23 22:23 40.88989 -87.44983 26729 ft 388 kts 173°
2026-04-23 22:24 40.86345 -87.44279 27063 ft 387 kts 173°
2026-04-23 22:24 40.83718 -87.43577 27436 ft 385 kts 173°
2026-04-23 22:24 40.81091 -87.42879 27733 ft 385 kts 173°
2026-04-23 22:24 40.78465 -87.42182 28033 ft 384 kts 173°
2026-04-23 22:25 40.75846 -87.41486 28345 ft 384 kts 173°
2026-04-23 22:25 40.73228 -87.40790 28661 ft 383 kts 173°
2026-04-23 22:25 40.70614 -87.40097 28979 ft 383 kts 173°
2026-04-23 22:25 40.68000 -87.39405 29284 ft 383 kts 174°
2026-04-23 22:26 40.65391 -87.38714 29588 ft 383 kts 174°
2026-04-23 22:26 40.62781 -87.38024 29893 ft 382 kts 174°
2026-04-23 22:26 40.60177 -87.37336 30161 ft 382 kts 174°
2026-04-23 22:26 40.57572 -87.36648 30386 ft 381 kts 174°
2026-04-23 22:27 40.54969 -87.35960 30582 ft 381 kts 174°
2026-04-23 22:27 40.52367 -87.35274 30782 ft 382 kts 174°
2026-04-23 22:27 40.47116 -87.33884 30884 ft 391 kts 172°
2026-04-23 22:28 40.44520 -87.32675 30897 ft 403 kts 157°
2026-04-23 22:28 40.42075 -87.30784 30898 ft 413 kts 151°
2026-04-23 22:28 40.38206 -87.26969 30902 ft 423 kts 147°
2026-04-23 22:29 40.33384 -87.22439 30909 ft 430 kts 151°
2026-04-23 22:29 40.28450 -87.17866 30915 ft 439 kts 148°
2026-04-23 22:30 40.23455 -87.13175 30913 ft 445 kts 149°
2026-04-23 22:30 40.18353 -87.08455 30908 ft 453 kts 149°
2026-04-23 22:31 40.13188 -87.03639 30910 ft 459 kts 149°
2026-04-23 22:31 40.07981 -86.98825 30917 ft 464 kts 149°
2026-04-23 22:32 40.02688 -86.93920 30920 ft 469 kts 149°
2026-04-23 22:32 39.97326 -86.89014 30915 ft 472 kts 150°
2026-04-23 22:33 39.91731 -86.84513 30917 ft 474 kts 153°
2026-04-23 22:33 39.86131 -86.79888 30917 ft 479 kts 151°
2026-04-23 22:34 39.80479 -86.75266 30931 ft 480 kts 153°
2026-04-23 22:34 39.74917 -86.70382 30937 ft 489 kts 142°
2026-04-23 22:35 39.72595 -86.67119 30943 ft 496 kts 130°
2026-04-23 22:35 39.70770 -86.63297 30951 ft 502 kts 118°
2026-04-23 22:35 39.68499 -86.54672 30943 ft 508 kts 105°
2026-04-23 22:36 39.66925 -86.45710 30946 ft 510 kts 106°
2026-04-23 22:36 39.64970 -86.36858 30950 ft 511 kts 107°
2026-04-23 22:37 39.63228 -86.27922 30950 ft 512 kts 106°
2026-04-23 22:37 39.61341 -86.19000 30969 ft 513 kts 107°
2026-04-23 22:38 39.59517 -86.10046 30967 ft 514 kts 106°
2026-04-23 22:38 39.57647 -86.01100 30967 ft 515 kts 107°
2026-04-23 22:39 39.55783 -85.92132 30958 ft 515 kts 106°
2026-04-23 22:39 39.53917 -85.83225 30958 ft 516 kts 107°
2026-04-23 22:40 39.52030 -85.74252 30958 ft 516 kts 107°
2026-04-23 22:41 39.49182 -85.60790 30944 ft 517 kts 107°
2026-04-23 22:41 39.47278 -85.51806 30943 ft 517 kts 107°
2026-04-23 22:42 39.45360 -85.42829 30941 ft 517 kts 107°
2026-04-23 22:42 39.43440 -85.33855 30945 ft 517 kts 106°
2026-04-23 22:43 39.41510 -85.24893 30954 ft 517 kts 107°
2026-04-23 22:43 39.39574 -85.15919 30958 ft 518 kts 107°
2026-04-23 22:44 39.37631 -85.06969 30964 ft 518 kts 107°
2026-04-23 22:44 39.35681 -84.98009 30962 ft 518 kts 106°
2026-04-23 22:45 39.33723 -84.89058 30963 ft 518 kts 106°
2026-04-23 22:45 39.31760 -84.80113 30972 ft 518 kts 106°
2026-04-23 22:46 39.29787 -84.71167 30974 ft 518 kts 107°
2026-04-23 22:46 39.27811 -84.62241 30977 ft 518 kts 106°
2026-04-23 22:47 39.25828 -84.53313 30977 ft 517 kts 106°
2026-04-23 22:47 39.23851 -84.44451 30976 ft 517 kts 106°
2026-04-23 22:48 39.21855 -84.35540 30971 ft 517 kts 106°
2026-04-23 22:48 39.19851 -84.26632 30967 ft 517 kts 106°
2026-04-23 22:49 39.17845 -84.17738 30970 ft 517 kts 106°
2026-04-23 22:49 39.15830 -84.08858 30970 ft 516 kts 106°
2026-04-23 22:50 39.13812 -83.99981 30975 ft 516 kts 106°
2026-04-23 22:50 39.11786 -83.91124 30981 ft 515 kts 106°
2026-04-23 22:51 39.09759 -83.82274 30984 ft 515 kts 106°
2026-04-23 22:51 39.07721 -83.73432 30984 ft 515 kts 106°
2026-04-23 22:52 39.05683 -83.64603 30984 ft 515 kts 106°
2026-04-23 22:52 39.03634 -83.55776 30987 ft 515 kts 106°
2026-04-23 22:53 39.01596 -83.47018 30990 ft 514 kts 105°
2026-04-23 22:53 38.99536 -83.38213 30992 ft 514 kts 106°
2026-04-23 22:54 38.97471 -83.29409 30989 ft 514 kts 106°
2026-04-23 22:54 38.95398 -83.20609 30990 ft 514 kts 106°
2026-04-23 22:55 38.93319 -83.11817 30993 ft 514 kts 105°
2026-04-23 22:55 38.91236 -83.03034 30987 ft 514 kts 105°
2026-04-23 22:56 38.89145 -82.94260 30986 ft 514 kts 105°
2026-04-23 22:56 38.87052 -82.85502 30986 ft 513 kts 105°
2026-04-23 22:57 38.84951 -82.76748 30992 ft 513 kts 105°
2026-04-23 22:57 38.82845 -82.68005 30992 ft 513 kts 105°
2026-04-23 22:58 38.80733 -82.59271 30993 ft 512 kts 105°
2026-04-23 22:58 38.78631 -82.50603 30993 ft 512 kts 105°
2026-04-23 22:59 38.76507 -82.41888 30995 ft 512 kts 106°
2026-04-23 22:59 38.74379 -82.33176 30992 ft 512 kts 106°
2026-04-23 23:00 38.72244 -82.24473 30975 ft 512 kts 106°
2026-04-23 23:00 38.70101 -82.15767 30992 ft 513 kts 106°
2026-04-23 23:01 38.67949 -82.07060 30990 ft 513 kts 106°
2026-04-23 23:01 38.65788 -81.98341 30993 ft 514 kts 106°
2026-04-23 23:02 38.63623 -81.89644 30992 ft 514 kts 106°
2026-04-23 23:02 38.61450 -81.80944 30995 ft 514 kts 106°
2026-04-23 23:03 38.59269 -81.72241 30990 ft 514 kts 106°
2026-04-23 23:03 38.57083 -81.63550 30998 ft 514 kts 106°
2026-04-23 23:04 38.54892 -81.54867 30991 ft 513 kts 106°
2026-04-23 23:04 38.52695 -81.46199 31196 ft 508 kts 106°
2026-04-23 23:04 38.51614 -81.41948 31686 ft 499 kts 106°
2026-04-23 23:05 38.50555 -81.37781 32186 ft 490 kts 106°
2026-04-23 23:05 38.49510 -81.33677 32699 ft 482 kts 106°
2026-04-23 23:05 38.48481 -81.29650 33220 ft 474 kts 106°
2026-04-23 23:05 38.47467 -81.25684 33761 ft 466 kts 106°
2026-04-23 23:06 38.46471 -81.21792 34250 ft 457 kts 106°
2026-04-23 23:06 38.45492 -81.17977 34725 ft 449 kts 106°
2026-04-23 23:06 38.44528 -81.14226 35206 ft 441 kts 106°
2026-04-23 23:06 38.43582 -81.10547 35694 ft 432 kts 106°
2026-04-23 23:07 38.42653 -81.06942 36198 ft 423 kts 106°
2026-04-23 23:07 38.41745 -81.03425 36708 ft 413 kts 106°
2026-04-23 23:07 38.40853 -80.99972 37006 ft 410 kts 106°
2026-04-23 23:07 38.39960 -80.96512 37129 ft 411 kts 106°
2026-04-23 23:08 38.39075 -80.93097 37248 ft 411 kts 106°
2026-04-23 23:08 38.38177 -80.89639 37378 ft 410 kts 106°
2026-04-23 23:08 38.37281 -80.86193 37476 ft 410 kts 106°
2026-04-23 23:09 38.35487 -80.79299 37633 ft 410 kts 106°
2026-04-23 23:09 38.33689 -80.72414 37820 ft 409 kts 106°
2026-04-23 23:09 38.32789 -80.68969 37929 ft 409 kts 106°
2026-04-23 23:10 38.32194 -80.66698 38000 ft 408 kts 106°
2026-04-23 23:10 38.30078 -80.58631 38019 ft 413 kts 106°
2026-04-23 23:11 38.28241 -80.51653 38024 ft 418 kts 106°
2026-04-23 23:11 38.26384 -80.44613 38024 ft 422 kts 106°
2026-04-23 23:12 38.24504 -80.37513 38019 ft 425 kts 106°
2026-04-23 23:12 38.22604 -80.30354 38021 ft 429 kts 106°
2026-04-23 23:13 38.20696 -80.23184 38020 ft 432 kts 106°
2026-04-23 23:13 38.18759 -80.15924 38028 ft 436 kts 106°
2026-04-23 23:14 38.16801 -80.08607 38015 ft 439 kts 106°
2026-04-23 23:14 38.14820 -80.01231 38015 ft 442 kts 106°
2026-04-23 23:15 38.12825 -79.93818 38015 ft 445 kts 107°
2026-04-23 23:15 38.10815 -79.86374 38006 ft 447 kts 107°
2026-04-23 23:16 38.08791 -79.78898 38021 ft 449 kts 107°
2026-04-23 23:16 38.06747 -79.71371 37997 ft 452 kts 107°
2026-04-23 23:17 38.04693 -79.63830 38000 ft 453 kts 107°
2026-04-23 23:17 38.02976 -79.57542 38002 ft 455 kts 107°
2026-04-23 23:18 38.00899 -79.49955 37993 ft 456 kts 107°
2026-04-23 23:18 37.98466 -79.41097 37978 ft 458 kts 107°
2026-04-23 23:19 37.96706 -79.34705 38061 ft 459 kts 107°
2026-04-23 23:19 37.94590 -79.27047 38047 ft 461 kts 107°
2026-04-23 23:20 37.92467 -79.19381 38026 ft 462 kts 107°
2026-04-23 23:20 37.90360 -79.11795 37997 ft 463 kts 107°
2026-04-23 23:21 37.88194 -79.03987 37966 ft 465 kts 107°
2026-04-23 23:21 37.86065 -78.96310 37951 ft 466 kts 107°
2026-04-23 23:22 37.83908 -78.88567 37947 ft 467 kts 107°
2026-04-23 23:22 37.81742 -78.80812 37940 ft 468 kts 107°
2026-04-23 23:23 37.79569 -78.73054 37945 ft 468 kts 107°
2026-04-23 23:23 37.77385 -78.65284 37936 ft 469 kts 107°
2026-04-23 23:24 37.75196 -78.57512 37936 ft 470 kts 107°
2026-04-23 23:24 37.72992 -78.49710 37936 ft 473 kts 107°
2026-04-23 23:25 37.70773 -78.41884 37937 ft 475 kts 107°
2026-04-23 23:25 37.68534 -78.34003 37936 ft 477 kts 108°
2026-04-23 23:26 37.66282 -78.26109 37934 ft 479 kts 108°
2026-04-23 23:26 37.64018 -78.18187 37937 ft 481 kts 108°
2026-04-23 23:27 37.61753 -78.10292 37950 ft 483 kts 108°
2026-04-23 23:27 37.59461 -78.02320 37951 ft 484 kts 108°
2026-04-23 23:28 37.57157 -77.94337 37954 ft 486 kts 108°
2026-04-23 23:28 37.54842 -77.86332 37944 ft 487 kts 108°
2026-04-23 23:29 37.52514 -77.78311 37951 ft 488 kts 108°
2026-04-23 23:29 37.50176 -77.70279 37949 ft 489 kts 108°
2026-04-23 23:30 37.47827 -77.62232 37947 ft 490 kts 108°
2026-04-23 23:30 37.45470 -77.54182 37959 ft 491 kts 108°
2026-04-23 23:31 37.43101 -77.46115 37963 ft 492 kts 108°
2026-04-23 23:31 37.40724 -77.38042 37953 ft 493 kts 108°
2026-04-23 23:32 37.38339 -77.29964 37950 ft 493 kts 109°
2026-04-23 23:32 37.35943 -77.21877 37960 ft 494 kts 109°
2026-04-23 23:33 37.33536 -77.13776 37952 ft 495 kts 109°
2026-04-23 23:33 37.31221 -77.05633 37954 ft 495 kts 106°
2026-04-23 23:34 37.29041 -76.97440 37961 ft 495 kts 107°
2026-04-23 23:34 37.26753 -76.89272 37961 ft 496 kts 107°
2026-04-23 23:35 37.24523 -76.81073 37955 ft 497 kts 107°
2026-04-23 23:35 37.22242 -76.72886 37955 ft 497 kts 107°
2026-04-23 23:36 37.19980 -76.64689 37958 ft 497 kts 107°
2026-04-23 23:36 37.17709 -76.56548 37944 ft 498 kts 107°
2026-04-23 23:37 37.15427 -76.48354 37966 ft 498 kts 107°
2026-04-23 23:37 37.13133 -76.40162 37959 ft 499 kts 107°
2026-04-23 23:38 37.10833 -76.31964 37959 ft 499 kts 107°
2026-04-23 23:38 37.08523 -76.23760 37959 ft 499 kts 107°
2026-04-23 23:39 37.06206 -76.15558 37977 ft 500 kts 107°
2026-04-23 23:39 37.03883 -76.07357 37964 ft 500 kts 107°
2026-04-23 23:40 37.01549 -75.99140 37972 ft 501 kts 107°
2026-04-23 23:40 36.99209 -75.90933 37986 ft 501 kts 107°
2026-04-23 23:41 36.96863 -75.82722 37983 ft 501 kts 107°
2026-04-23 23:41 36.94509 -75.74515 37985 ft 502 kts 107°
2026-04-23 23:42 36.92161 -75.66347 37983 ft 502 kts 107°
2026-04-23 23:42 36.89793 -75.58140 37986 ft 502 kts 107°
2026-04-23 23:43 36.87418 -75.49931 37986 ft 503 kts 107°
2026-04-23 23:43 36.85034 -75.41718 38001 ft 503 kts 107°
2026-04-23 23:44 36.82645 -75.33510 37989 ft 503 kts 107°
2026-04-23 23:44 36.80249 -75.25300 37999 ft 504 kts 107°
2026-04-23 23:45 36.77846 -75.17096 37994 ft 504 kts 107°
2026-04-23 23:45 36.75439 -75.08894 37995 ft 504 kts 107°
2026-04-23 23:46 36.73038 -75.00746 38008 ft 504 kts 107°
2026-04-23 23:46 36.70613 -74.92534 38014 ft 504 kts 107°
2026-04-23 23:47 36.68181 -74.84329 38012 ft 505 kts 107°
2026-04-23 23:47 36.65745 -74.76128 38012 ft 505 kts 107°
2026-04-23 23:48 36.63304 -74.67939 38010 ft 505 kts 107°
2026-04-23 23:48 36.60853 -74.59742 38003 ft 505 kts 107°
2026-04-23 23:49 36.57164 -74.47444 38016 ft 506 kts 107°
2026-04-23 23:49 36.54698 -74.39252 38010 ft 506 kts 107°
2026-04-23 23:50 36.52224 -74.31060 38018 ft 506 kts 107°
2026-04-23 23:50 36.49742 -74.22867 38020 ft 506 kts 107°
2026-04-23 23:51 36.47257 -74.14679 38018 ft 507 kts 107°
2026-04-23 23:51 36.44760 -74.06490 38022 ft 507 kts 107°
2026-04-23 23:52 36.42261 -73.98300 38017 ft 507 kts 107°
2026-04-23 23:52 36.39751 -73.90115 38021 ft 508 kts 107°
2026-04-23 23:53 36.37234 -73.81915 38019 ft 508 kts 107°
2026-04-23 23:53 36.34708 -73.73723 38004 ft 508 kts 107°
2026-04-23 23:54 36.32194 -73.65584 38002 ft 509 kts 107°
2026-04-23 23:54 36.29653 -73.57385 38017 ft 510 kts 107°
2026-04-23 23:55 36.27102 -73.49180 38020 ft 510 kts 107°
2026-04-23 23:55 36.24550 -73.40985 38023 ft 510 kts 107°
2026-04-23 23:56 36.21983 -73.32780 38020 ft 511 kts 107°
2026-04-23 23:56 36.19414 -73.24574 38019 ft 511 kts 107°
2026-04-23 23:57 36.16833 -73.16372 38017 ft 512 kts 107°
2026-04-23 23:57 36.14248 -73.08164 38015 ft 512 kts 107°
2026-04-23 23:58 36.11652 -72.99958 38015 ft 512 kts 107°
2026-04-23 23:58 36.09067 -72.91798 38019 ft 513 kts 107°
2026-04-23 23:59 36.06460 -72.83598 38019 ft 513 kts 107°
2026-04-23 23:59 36.03842 -72.75389 38016 ft 513 kts 107°
2026-04-24 00:00 36.01220 -72.67181 38018 ft 514 kts 107°
2026-04-24 00:00 35.98588 -72.58978 38028 ft 514 kts 107°
2026-04-24 00:01 35.95949 -72.50760 38025 ft 515 kts 107°
2026-04-24 00:01 35.93300 -72.42549 38020 ft 515 kts 107°
2026-04-24 00:02 35.90647 -72.34337 38008 ft 515 kts 107°
2026-04-24 00:02 35.87983 -72.26125 38012 ft 516 kts 108°
2026-04-24 00:03 35.85317 -72.17918 38024 ft 516 kts 108°
2026-04-24 00:03 35.82643 -72.09717 38020 ft 516 kts 108°
2026-04-24 00:04 35.79961 -72.01512 38018 ft 516 kts 108°
2026-04-24 00:04 35.77292 -71.93364 38015 ft 516 kts 108°
2026-04-24 00:05 35.74594 -71.85159 38014 ft 517 kts 108°
2026-04-24 00:05 35.71891 -71.76952 38013 ft 517 kts 108°
2026-04-24 00:06 35.69178 -71.68749 38011 ft 518 kts 108°
2026-04-24 00:06 35.66899 -71.61864 38013 ft 518 kts 108°
2026-04-24 00:07 35.64194 -71.53723 38015 ft 519 kts 108°
2026-04-24 00:07 35.61332 -71.45570 38018 ft 520 kts 111°
2026-04-24 00:08 35.58377 -71.37444 38014 ft 520 kts 109°
2026-04-24 00:08 35.55488 -71.29299 38013 ft 521 kts 110°
2026-04-24 00:09 35.52537 -71.21176 38018 ft 521 kts 110°
2026-04-24 00:09 35.49616 -71.13033 38018 ft 521 kts 110°
2026-04-24 00:10 35.46663 -71.04908 38006 ft 521 kts 110°
2026-04-24 00:10 35.43724 -70.96786 38003 ft 521 kts 110°
2026-04-24 00:11 35.40767 -70.88669 37999 ft 521 kts 110°
2026-04-24 00:11 35.37811 -70.80556 38014 ft 522 kts 110°
2026-04-24 00:12 35.34843 -70.72445 38014 ft 522 kts 110°
2026-04-24 00:12 35.31874 -70.64339 38017 ft 522 kts 110°
2026-04-24 00:13 35.28890 -70.56227 38012 ft 522 kts 110°
2026-04-24 00:13 35.25927 -70.48176 38012 ft 523 kts 111°
2026-04-24 00:14 35.22927 -70.40065 38013 ft 523 kts 111°
2026-04-24 00:14 35.19927 -70.31954 38013 ft 523 kts 111°
2026-04-24 00:15 35.16913 -70.23845 38008 ft 524 kts 111°
2026-04-24 00:15 35.13898 -70.15736 38008 ft 524 kts 111°
2026-04-24 00:16 35.10869 -70.07623 38004 ft 525 kts 111°
2026-04-24 00:16 35.07836 -69.99515 38006 ft 525 kts 111°
2026-04-24 00:17 35.04800 -69.91418 38006 ft 525 kts 111°
2026-04-24 00:17 35.01752 -69.83315 38010 ft 525 kts 112°
2026-04-24 00:18 34.98703 -69.75219 38004 ft 525 kts 112°
2026-04-24 00:18 34.95642 -69.67128 38003 ft 525 kts 112°
2026-04-24 00:19 34.92580 -69.59037 38004 ft 526 kts 112°
2026-04-24 00:19 34.89510 -69.50959 38001 ft 526 kts 112°
2026-04-24 00:20 34.86432 -69.42868 38001 ft 526 kts 112°
2026-04-24 00:20 34.83349 -69.34793 38001 ft 526 kts 112°
2026-04-24 00:21 34.80260 -69.26720 38003 ft 526 kts 112°
2026-04-24 00:21 34.77168 -69.18655 38017 ft 526 kts 113°
2026-04-24 00:22 34.74065 -69.10590 38005 ft 526 kts 113°
2026-04-24 00:22 34.70959 -69.02527 38005 ft 527 kts 113°
2026-04-24 00:23 34.67866 -68.94529 38002 ft 527 kts 113°
2026-04-24 00:23 34.64746 -68.86468 38005 ft 527 kts 113°
2026-04-24 00:24 34.61620 -68.78420 38002 ft 527 kts 113°
2026-04-24 00:24 34.58486 -68.70367 37987 ft 527 kts 113°
2026-04-24 00:25 34.55348 -68.62325 37990 ft 527 kts 113°
2026-04-24 00:25 34.52208 -68.54297 37987 ft 527 kts 113°
2026-04-24 00:26 34.49061 -68.46270 38005 ft 527 kts 114°
2026-04-24 00:26 34.45906 -68.38247 38002 ft 527 kts 114°
2026-04-24 00:27 34.42753 -68.30238 38000 ft 527 kts 114°
2026-04-24 00:27 34.39609 -68.22285 38000 ft 527 kts 114°
2026-04-24 00:28 34.36422 -68.14228 38001 ft 527 kts 114°
2026-04-24 00:28 34.33269 -68.06286 38001 ft 527 kts 114°
2026-04-24 00:29 34.30088 -67.98287 38004 ft 527 kts 114°
2026-04-24 00:29 34.26905 -67.90304 38001 ft 527 kts 114°
2026-04-24 00:30 34.23716 -67.82328 38003 ft 527 kts 114°
2026-04-24 00:30 34.20522 -67.74351 38003 ft 527 kts 114°
2026-04-24 00:31 34.17320 -67.66385 37998 ft 527 kts 114°
2026-04-24 00:31 34.14113 -67.58417 37998 ft 527 kts 115°
2026-04-24 00:32 34.10685 -67.50595 37995 ft 528 kts 119°
2026-04-24 00:32 34.07142 -67.42832 37995 ft 527 kts 117°
2026-04-24 00:33 34.03702 -67.35025 37995 ft 527 kts 118°
2026-04-24 00:33 34.00192 -67.27329 37995 ft 527 kts 117°
2026-04-24 00:34 33.96722 -67.19541 38006 ft 527 kts 118°
2026-04-24 00:34 33.93200 -67.11803 38003 ft 527 kts 118°
2026-04-24 00:35 33.89708 -67.04042 38003 ft 527 kts 118°
2026-04-24 00:35 33.86189 -66.96312 38006 ft 527 kts 118°
2026-04-24 00:36 33.82681 -66.88574 38012 ft 527 kts 118°
2026-04-24 00:36 33.79155 -66.80846 38004 ft 527 kts 119°
2026-04-24 00:37 33.75632 -66.73122 38010 ft 527 kts 119°
2026-04-24 00:37 33.72095 -66.65394 38010 ft 527 kts 119°
2026-04-24 00:38 33.68559 -66.57680 38012 ft 527 kts 119°
2026-04-24 00:38 33.65020 -66.49979 38009 ft 527 kts 119°
2026-04-24 00:39 33.61472 -66.42276 38017 ft 527 kts 119°
2026-04-24 00:39 33.57921 -66.34579 38018 ft 527 kts 119°
2026-04-24 00:40 33.54360 -66.26885 38018 ft 527 kts 119°
2026-04-24 00:40 33.50797 -66.19196 38018 ft 528 kts 120°
2026-04-24 00:41 33.47232 -66.11521 38011 ft 524 kts 120°
2026-04-24 00:41 33.45465 -66.07723 37713 ft 524 kts 120°
2026-04-24 00:41 33.43679 -66.03889 37042 ft 528 kts 119°
2026-04-24 00:42 33.41890 -66.00051 36342 ft 529 kts 119°
2026-04-24 00:42 33.40103 -65.96223 35660 ft 524 kts 119°
2026-04-24 00:42 33.38335 -65.92439 34973 ft 517 kts 118°
2026-04-24 00:42 33.36584 -65.88714 34304 ft 511 kts 118°
2026-04-24 00:43 33.34844 -65.85032 33590 ft 505 kts 118°
2026-04-24 00:43 33.33128 -65.81393 32925 ft 498 kts 118°
2026-04-24 00:43 33.31444 -65.77812 32271 ft 491 kts 118°
2026-04-24 00:43 33.29775 -65.74274 31629 ft 486 kts 118°
2026-04-24 00:44 33.28117 -65.70773 30993 ft 483 kts 118°
2026-04-24 00:44 33.26467 -65.67285 30362 ft 481 kts 118°
2026-04-24 00:44 33.24822 -65.63808 29692 ft 479 kts 118°
2026-04-24 00:44 33.23187 -65.60359 29061 ft 475 kts 118°
2026-04-24 00:45 33.21564 -65.56940 28435 ft 471 kts 118°
2026-04-24 00:45 33.19955 -65.53550 27818 ft 468 kts 118°
2026-04-24 00:45 33.18354 -65.50181 27203 ft 464 kts 118°
2026-04-24 00:45 33.16783 -65.46879 26599 ft 462 kts 118°
2026-04-24 00:46 33.15208 -65.43571 26000 ft 458 kts 118°
2026-04-24 00:46 33.13631 -65.40264 25395 ft 456 kts 118°
2026-04-24 00:46 33.12069 -65.36988 24798 ft 453 kts 118°
2026-04-24 00:46 33.10515 -65.33732 24203 ft 451 kts 118°
2026-04-24 00:47 33.08963 -65.30487 23611 ft 449 kts 118°
2026-04-24 00:47 33.07427 -65.27275 22975 ft 445 kts 119°
2026-04-24 00:47 33.05769 -65.24182 22388 ft 441 kts 127°
2026-04-24 00:47 33.03811 -65.21387 21812 ft 436 kts 133°
2026-04-24 00:48 33.01698 -65.18824 21244 ft 432 kts 137°
2026-04-24 00:48 32.99566 -65.16310 20670 ft 429 kts 135°
2026-04-24 00:48 32.97555 -65.13710 20111 ft 426 kts 133°
2026-04-24 00:48 32.95596 -65.11090 19554 ft 421 kts 133°
2026-04-24 00:49 32.93604 -65.08561 19009 ft 416 kts 135°
2026-04-24 00:49 32.91610 -65.06101 18468 ft 411 kts 135°
2026-04-24 00:49 32.89660 -65.03631 17880 ft 407 kts 134°
2026-04-24 00:49 32.87758 -65.01177 17342 ft 401 kts 134°
2026-04-24 00:50 32.85866 -64.98770 16822 ft 395 kts 135°
2026-04-24 00:50 32.83985 -64.96406 16279 ft 391 kts 135°
2026-04-24 00:50 32.82130 -64.94061 15751 ft 388 kts 134°
2026-04-24 00:50 32.80291 -64.91726 15240 ft 385 kts 134°
2026-04-24 00:51 32.78469 -64.89417 14735 ft 382 kts 135°
2026-04-24 00:51 32.76653 -64.87125 14239 ft 379 kts 134°
2026-04-24 00:51 32.74852 -64.84851 13731 ft 377 kts 135°
2026-04-24 00:51 32.73062 -64.82588 13212 ft 374 kts 135°
2026-04-24 00:52 32.71284 -64.80346 12717 ft 371 kts 135°
2026-04-24 00:52 32.69529 -64.78134 12232 ft 365 kts 135°
2026-04-24 00:52 32.68380 -64.76687 11915 ft 361 kts 134°
2026-04-24 00:52 32.66672 -64.74531 11444 ft 356 kts 135°
2026-04-24 00:53 32.64980 -64.72402 10975 ft 352 kts 135°
2026-04-24 00:53 32.63310 -64.70302 10515 ft 349 kts 135°
2026-04-24 00:53 32.61653 -64.68219 10076 ft 345 kts 135°
2026-04-24 00:53 32.60010 -64.66153 9579 ft 342 kts 135°
2026-04-24 00:54 32.58386 -64.64113 9128 ft 338 kts 135°
2026-04-24 00:54 32.56781 -64.62097 8686 ft 334 kts 135°
2026-04-24 00:54 32.55190 -64.60102 8236 ft 331 kts 135°
2026-04-24 00:54 32.53617 -64.58129 7810 ft 325 kts 135°
2026-04-24 00:55 32.52088 -64.56212 7394 ft 316 kts 135°
2026-04-24 00:55 32.50596 -64.54343 6968 ft 309 kts 135°
2026-04-24 00:55 32.49125 -64.52501 6574 ft 305 kts 135°
2026-04-24 00:55 32.47698 -64.50657 6166 ft 302 kts 134°
2026-04-24 00:56 32.46324 -64.48792 5761 ft 300 kts 133°
2026-04-24 00:56 32.44955 -64.46943 5364 ft 297 kts 135°
2026-04-24 00:56 32.43380 -64.45416 4975 ft 289 kts 155°
2026-04-24 00:56 32.41541 -64.44586 4606 ft 278 kts 173°
2026-04-24 00:57 32.39656 -64.44446 4277 ft 266 kts 191°
2026-04-24 00:57 32.37880 -64.44763 3963 ft 258 kts 198°
2026-04-24 00:57 32.34978 -64.46737 3345 ft 227 kts 233°
2026-04-24 00:58 32.34129 -64.48241 3041 ft 209 kts 248°
2026-04-24 00:58 32.33704 -64.49764 2991 ft 187 kts 260°
2026-04-24 00:58 32.33611 -64.51233 2819 ft 170 kts 274°
2026-04-24 00:58 32.33846 -64.52538 2612 ft 159 kts 288°
2026-04-24 00:59 32.34358 -64.53694 2349 ft 155 kts 292°
2026-04-24 00:59 32.34570 -64.54886 2119 ft 150 kts 270°
2026-04-24 00:59 32.34555 -64.56114 1825 ft 145 kts 271°
2026-04-24 00:59 32.34645 -64.57282 1541 ft 144 kts 277°
2026-04-24 01:00 32.34812 -64.58405 1387 ft 129 kts 278°
2026-04-24 01:00 32.34993 -64.59391 1267 ft 118 kts 279°
2026-04-24 01:00 32.35154 -64.60319 1033 ft 111 kts 278°
2026-04-24 01:00 32.35307 -64.61189 818 ft 104 kts 277°
2026-04-24 01:01 32.35454 -64.62012 686 ft 99 kts 276°
2026-04-24 01:01 32.35587 -64.62815 590 ft 100 kts 272°
2026-04-24 01:01 32.35707 -64.63621 512 ft 100 kts 276°
2026-04-24 01:01 32.35838 -64.64426 408 ft 101 kts 275°
2026-04-24 01:02 32.35965 -64.65257 238 ft 103 kts 277°
2026-04-24 01:02 32.36099 -64.66072 119 ft 98 kts 278°
2026-04-24 01:02 32.36231 -64.66849 23 ft 87 kts 280°
2026-04-24 01:02 32.36324 -64.67402 18 ft 50 kts 282°
2026-04-24 01:03 32.36373 -64.67685 18 ft 28 kts 281°
2026-04-24 01:03 32.36424 -64.67822 18 ft 14 kts 355°
2026-04-24 01:03 32.36492 -64.67811 20 ft 0 kts 11°
2026-04-24 01:03 32.36494 -64.67810 20 ft 2 kts 11°
2026-04-24 01:04 32.36524 -64.67772 20 ft 13 kts 84°
2026-04-24 01:04 32.36501 -64.67615 21 ft 25 kts 101°
2026-04-24 01:04 32.36460 -64.67379 20 ft 34 kts 102°
2026-04-24 01:04 32.36411 -64.67105 20 ft 23 kts 103°
2026-04-24 01:05 32.36428 -64.66995 20 ft 15 kts 11°
2026-04-24 01:05 32.36476 -64.66910 20 ft 14 kts 96°
2026-04-24 01:05 32.36481 -64.66794 20 ft 10 kts 79°
2026-04-24 01:05 32.36459 -64.66780 20 ft 0 kts 223°